Dati Storici

Data ora Umidita' aria (%) Temperatura aria (°C) Rad globale (W/m²) Gonioanemometro (°) Tacoanemometro (m/s) Pioggia (mm)
06-06-2020 20:50 83.3 % 20.511 -63.996 0.168 0 0
06-06-2020 20:40 82.2 % 20.806 -64.476 0.628 0 0
06-06-2020 20:30 81 % 20.703 -62.276 0.865 0 0
06-06-2020 20:20 82.1 % 20.772 -67.464 0.587 0 0
06-06-2020 20:10 83.6 % 20.69 -64.719 1.32 0 0
06-06-2020 20:00 83.5 % 20.769 -69.324 0.884 0 0
06-06-2020 19:50 82.7 % 20.854 -71.555 0.809 0 0
06-06-2020 19:40 80.3 % 21.119 -76.176 0.899 0 0
06-06-2020 19:30 80.8 % 21.365 -75.272 0.463 0 0
06-06-2020 19:20 80.3 % 21.383 -73.453 1.642 0 0
06-06-2020 19:10 79 % 21.551 -72.154 0.428 0 0
06-06-2020 19:00 75.3 % 21.81 -64.914 0.56 0 0
06-06-2020 18:50 74.8 % 22.105 -75.794 0.436 0 0
06-06-2020 18:40 76.4 % 22.245 -68.178 1.303 0 0
06-06-2020 18:30 76.8 % 22.672 -67.924 1.314 0 0
06-06-2020 18:20 76.3 % 22.895 -73.133 1.639 0 0
06-06-2020 18:10 79.2 % 22.886 -76.485 1.014 0 0
06-06-2020 18:00 80.1 % 21.878 -69.916 2.647 0 0
06-06-2020 17:50 82.4 % 21.604 -66.964 1.013 0 0
06-06-2020 17:40 84.5 % 21.311 -70.006 1.765 0 0

I dati sono presentati in modo automatico a scopo informativo. In seguito a verifica i dati possono subire modifiche o essere invalidati e non riportati negli archivi definitivi.